Weather History for Lexington, KY

Change the Weather History Date:

Friday, January 3, 2014

  Actual Average Record
Temperature  
Mean Temperature 13 °F 33 °F  
Max Temperature 20 °F 41 °F 68 °F (1907)
Min Temperature 5 °F 25 °F -2 °F (1928)
Degree Days  
Heating Degree Days 52 32  
Month to date heating degree days 116 96  
Since 1 July heating degree days 1874 1884  
Cooling Degree Days 0 0  
Month to date cooling degree days 0 0  
Year to date cooling degree days 0 0  
Moisture  
Dew Point 5 °F    
Average Humidity 67    
Maximum Humidity 83    
Minimum Humidity 51    
Precipitation  
Precipitation T in 0.11 in 2.60 in (1951)
Month to date precipitation 0.22 0.32  
Year to date precipitation 0.22 0.32  
Snow  
Snow T in 0.10 in 7.00 in (1942)
Month to date snowfall 0.8 0.3  
Since 1 July snowfall 2.8 3.1  
Snow Depth 1.00 in    
Sea Level Pressure  
Sea Level Pressure 30.43 in    
Wind  
Wind Speed 6 mph (NW)    
Max Wind Speed 20 mph    
Max Gust Speed 25 mph    
Visibility 10 miles    
Events Snow    
T = Trace of Precipitation, MM = Missing Value Source: NWS Daily Summary

Daily Weather History Graph

Daily Weather History Graph

Search for Another Location

Airport:

Trip Planner

Search our weather history database for the weather conditions in past years. The results will help you decide how hot, cold, wet, or windy it might be!

Date:

Astronomy

Jan. 03, 2014 Rise Set
Actual Time 7:54 AM EST 5:31 PM EST
Civil Twilight 7:25 AM EST 6:00 PM EST
Nautical Twilight 6:52 AM EST 6:33 PM EST
Astronomical Twilight 6:20 AM EST 7:05 PM EST
Moon 9:23 AM EST (1/3) 8:36 PM EST (1/3)
Length of Visible Light 10h 35m
Length of Day
9h 36m
Waxing Crescent, 8% of the Moon is Illuminated
Jan 3
Waxing Crescent
Jan 7
First Quarter
Jan 15
Full
Jan 24
Last Quarter
Jan 30
New

Hourly Weather History & Observations

Time (EST) Temp. Windchill Dew Point Humidity Pressure Visibility Wind Dir Wind Speed Gust Speed Precip Events Conditions
12:54 AM 14.0 °F -2.0 °F 7.0 °F 74% 30.32 in 9.0 mi NW 16.1 mph - 0.00 in Snow Light Snow
1:54 AM 12.9 °F -0.9 °F 7.0 °F 77% 30.34 in 5.0 mi NNW 11.5 mph - 0.00 in Snow Light Snow
2:14 AM 10.9 °F -3.4 °F 5.0 °F 77% 30.30 in 10.0 mi NNW 11.5 mph - 0.00 in   Overcast
2:33 AM 10.9 °F -1.8 °F 5.0 °F 77% 30.32 in 10.0 mi NW 9.2 mph - 0.00 in   Scattered Clouds
2:54 AM 10.0 °F -1.9 °F 3.9 °F 76% 30.39 in 10.0 mi NW 8.1 mph - 0.00 in   Clear
3:54 AM 8.1 °F -0.5 °F 3.9 °F 83% 30.41 in 10.0 mi NW 4.6 mph - N/A   Clear
4:54 AM 8.1 °F 1.4 °F 3.9 °F 83% 30.41 in 10.0 mi NNW 3.5 mph - N/A   Clear
5:54 AM 6.1 °F -5.6 °F 1.9 °F 83% 30.45 in 10.0 mi NW 6.9 mph - N/A   Clear
6:54 AM 6.1 °F -0.9 °F 1.9 °F 83% 30.47 in 10.0 mi NNW 3.5 mph - N/A   Clear
7:54 AM 5.0 °F - -0.0 °F 80% 30.49 in 10.0 mi Calm Calm - N/A   Clear
8:54 AM 9.0 °F -2.2 °F 3.0 °F 77% 30.51 in 10.0 mi NE 6.9 mph - N/A   Clear
9:54 AM 10.9 °F 0.2 °F 3.0 °F 70% 30.52 in 10.0 mi North 6.9 mph - N/A   Clear
10:54 AM 12.9 °F 5.2 °F 5.0 °F 71% 30.55 in 10.0 mi WNW 4.6 mph - N/A   Clear
11:54 AM 16.0 °F 8.8 °F 3.9 °F 59% 30.51 in 9.0 mi NE 4.6 mph - 0.00 in Snow Light Snow
12:54 PM 17.1 °F 8.7 °F 3.9 °F 56% 30.51 in 10.0 mi West 5.8 mph - 0.00 in   Clear
1:54 PM 18.0 °F - 3.9 °F 54% 30.49 in 10.0 mi Calm Calm - N/A   Clear
2:54 PM 18.0 °F 12.7 °F 5.0 °F 57% 30.46 in 10.0 mi South 3.5 mph - N/A   Clear
3:54 PM 19.9 °F 13.4 °F 6.1 °F 55% 30.48 in 10.0 mi South 4.6 mph - N/A   Clear
4:54 PM 19.9 °F 13.4 °F 5.0 °F 52% 30.45 in 10.0 mi South 4.6 mph - N/A   Clear
5:54 PM 19.0 °F 13.9 °F 6.1 °F 57% 30.44 in 10.0 mi ESE 3.5 mph - N/A   Clear
6:54 PM 18.0 °F 11.1 °F 8.1 °F 65% 30.43 in 10.0 mi SE 4.6 mph - N/A   Clear
7:54 PM 17.1 °F 8.7 °F 7.0 °F 65% 30.42 in 10.0 mi SE 5.8 mph - N/A   Clear
8:54 PM 17.1 °F 8.7 °F 7.0 °F 65% 30.39 in 10.0 mi SSE 5.8 mph - N/A   Clear
9:54 PM 17.1 °F 7.6 °F 7.0 °F 65% 30.36 in 10.0 mi SSE 6.9 mph - N/A   Clear
10:54 PM 17.1 °F 5.8 °F 8.1 °F 68% 30.33 in 10.0 mi SSE 9.2 mph - N/A   Clear
11:54 PM 17.1 °F 5.8 °F 8.1 °F 68% 30.30 in 10.0 mi SSE 9.2 mph - N/A   Clear